Simultaneous Nadir Overpasses (SNOs) Predictions

Prediction of SNOs between METOP-A and TERRA Satellite Orbit:

Table of predicted SNOs for the next 14.0 days since TLE Epoch: 11/24/2018
Index Date (METOP-A) Time (METOP-A) Lat,Lon (METOP-A) SZA (METOP-A ) Date (TERRA) Time (TERRA) Lat,Lon (TERRA) SZA (TERRA ) Distance(km) Time Diff (sec)
1 11/25/2018 05:32:51 81.44, 146.53 105.42 11/25/2018 05:33:00 81.43, 146.69 105.44 2.61 9
2 11/25/2018 06:23:30 -81.43, -45.50 74.51 11/25/2018 06:22:26 -81.44, -45.42 74.53 1.57 64
3 11/28/2018 01:07:06 81.44,-146.93 105.92 11/28/2018 01:07:12 81.43,-146.80 105.94 2.10 6
4 11/28/2018 01:57:46 -81.44, 20.69 74.04 11/28/2018 01:56:39 -81.43, 20.72 74.08 0.95 67
5 11/30/2018 20:41:20 81.44, -80.41 106.37 11/30/2018 20:41:23 81.44, -80.30 106.39 1.80 3
6 11/30/2018 21:32:00 -81.44, 87.25 73.59 11/30/2018 21:30:50 -81.43, 87.25 73.63 0.34 70
7 12/03/2018 15:24:55 -81.44, 178.57 73.27 12/03/2018 15:26:09 -81.43, 178.47 73.24 1.55 74
8 12/03/2018 16:15:35 81.44, -13.91 106.76 12/03/2018 16:15:35 81.44, -13.81 106.78 1.70 0
9 12/03/2018 17:06:15 -81.43, 153.79 73.20 12/03/2018 17:05:02 -81.43, 153.75 73.23 0.55 73
10 12/06/2018 10:59:10 -81.44,-114.92 72.93 12/06/2018 11:00:21 -81.44,-115.03 72.91 1.85 71




NCC Satellite Simultaneous Nadir Overpasses (SNOs) Prediction Service
